Theta_e
346 346 344 345 345 345 346 350 349 348 346 340 342 344 343 344 345 341 348 347 346 349 349 347 350 349 346 344 343 346 344 343 344
345 346 344 345 344 343 349 346 346 349 347 343 337 343 345 344 345 348 347 347 344 347 348 348 350 349 347 346 345 347 343 343 341
345 345 344 344 346 346 346 347 346 350 347 345 340 334 340 344 346 347 345 349 347 344 348 350 347 345 346 345 346 349 346 344 348
343 346 345 345 345 346 346 344 348 350 349 347 341 335 340 342 341 342 347 346 347 345 346 347 342 346 349 349 349 348 348 347 346
343 345 345 343 346 348 346 344 345 348 351 347 342 342 346 341 343 342 342 345 346 345 345 345 339 348 352 351 346 343 343 344 345
345 344 345 342 340 346 348 345 343 349 348 345 345 345 348 345 347 344 346 344 344 342 346 345 343 345 345 346 346 346 347 348 342
346 345 342 344 346 347 348 346 345 350 348 344 345 345 349 346 348 347 348 348 347 345 341 347 347 348 348 348 347 347 348 348 347
347 347 345 348 348 348 346 345 349 348 346 342 346 344 347 347 347 347 348 347 347 347 346 344 343 348 348 346 347 347 346 347 345
349 349 351 351 350 348 347 345 343 339 347 348 345 343 345 346 347 347 347 347 348 348 346 347 344 347 346 347 347 345 344 345 343
347 350 351 350 351 349 347 346 345 339 347 347 347 346 345 345 342 342 344 346 346 345 344 346 346 346 346 348 346 345 343 343 344
348 348 347 349 349 347 349 347 348 345 346 347 345 344 343 342 342 341 341 342 342 343 344 346 344 345 347 344 345 343 340 340 343
344 344 344 345 348 350 349 348 347 345 344 344 344 344 343 342 341 341 341 345 343 344 343 346 345 340 336 337 341 341 341 341 340
342 340 341 341 344 348 347 349 348 348 346 346 345 344 343 341 339 339 340 337 340 342 340 341 338 336 334 331 333 338 341 340 340
338 336 337 336 340 341 347 348 347 348 346 345 345 343 341 341 340 340 340 340 339 338 338 338 337 336 334 333 334 336 339 340 340
332 334 335 334 336 338 339 341 343 343 343 342 341 341 341 340 339 340 340 338 339 338 337 336 337 336 337 336 336 336 335 336 335
333 333 332 332 333 335 335 335 336 337 337 337 337 338 339 338 338 338 337 337 337 336 335 335 334 334 334 333 333 333 332 332 331
330 329 328 328 328 330 331 331 331 333 332 331 333 333 334 334 334 333 333 334 334 333 332 330 328 327 327 327 326 326 326 324 322
323 322 321 319 319 319 319 318 320 322 323 323 321 321 322 325 326 327 329 330 330 329 329 328 327 326 326 324 316 311 310 309 308
323 321 320 319 316 314 314 313 313 314 314 313 313 314 314 316 317 322 323 324 324 324 325 326 324 324 321 316 314 310 304 303 303
323 321 320 318 316 313 311 312 312 315 316 317 316 316 318 316 314 314 312 315 319 319 316 321 320 319 316 309 304 302 302 302 304
Wind_Speed
26 30 30 32 33 28 27 32 30 25 22 21 22 21 20 16 15 14 13 11 10 11 12 10 13 9 6 6 9 8 7 6 8
35 33 35 26 31 29 31 36 27 28 24 20 18 20 18 17 17 14 14 13 12 12 12 16 16 13 7 8 8 5 8 5 9
30 21 30 33 34 30 37 33 32 28 28 22 18 20 18 17 14 16 14 11 12 18 14 11 13 11 7 7 11 10 9 7 8
35 29 31 36 39 32 38 32 33 31 33 24 20 20 17 15 15 17 17 12 12 16 14 13 12 13 9 10 8 10 10 10 10
35 38 39 37 30 39 37 38 32 30 36 24 18 21 17 14 12 12 14 13 11 13 11 9 15 13 12 12 9 11 11 9 8
33 37 38 44 36 32 35 39 37 36 34 26 22 20 20 18 16 15 13 11 10 13 13 8 11 13 12 13 11 11 11 10 10
38 41 38 34 38 40 36 29 22 41 32 21 25 25 25 23 24 20 20 18 15 13 12 11 10 12 12 9 10 13 12 10 10
28 36 40 33 38 42 42 31 30 27 27 29 30 28 25 20 25 23 26 21 19 20 18 14 14 14 13 11 13 14 10 7 7
11 19 29 32 34 36 42 46 34 22 26 22 36 26 24 23 21 19 21 23 26 21 20 17 16 16 17 15 16 9 8 7 13
18 13 18 26 30 27 30 44 39 30 26 29 27 25 26 25 21 21 22 26 26 28 23 24 22 21 19 16 11 5 4 5 6
19 10 9 18 24 24 25 25 24 26 29 26 24 22 19 18 17 18 19 15 21 27 24 25 24 22 15 7 9 9 7 6 10
11 4 4 9 14 24 27 24 27 27 25 23 19 14 13 13 10 8 6 7 6 21 22 21 17 16 16 10 8 7 7 10 8
4 1 2 3 7 12 21 22 19 21 21 18 14 13 12 11 10 8 6 4 5 5 4 11 16 14 10 3 2 2 9 11 10
2 3 2 9 11 12 19 19 18 18 13 15 18 16 15 13 11 8 7 4 3 3 5 6 7 10 8 8 6 6 6 8 10
5 5 4 4 8 11 14 16 16 15 15 17 15 16 14 12 12 11 9 7 5 4 5 8 8 9 9 9 9 9 9 10 9
3 3 6 7 9 11 10 10 11 13 16 14 12 11 12 13 13 14 12 9 7 6 7 8 7 7 7 6 5 6 6 7 8
9 11 12 11 13 14 14 12 11 12 14 14 14 16 16 15 15 14 13 13 12 13 17 15 10 7 6 3 5 7 7 6 5
15 15 14 12 13 15 16 15 13 13 13 13 14 14 14 13 13 13 16 15 15 13 14 12 14 12 8 5 2 1 2 4 5
15 15 14 12 12 12 13 13 13 13 12 10 10 10 9 9 7 9 7 8 7 8 9 12 11 10 8 6 8 7 3 4 5
17 17 16 15 14 13 13 13 13 13 13 13 13 13 10 8 6 4 4 12 12 11 12 13 12 11 10 8 6 4 4 7 10
Wind_Direction
199 200 210 201 193 177 189 188 190 192 196 193 201 200 207 207 199 182 186 192 196 214 210 209 205 219 223 217 204 197 216 216 183
208 202 195 196 204 193 191 189 193 201 202 198 194 204 207 206 193 188 184 189 205 206 211 218 202 208 212 192 189 223 233 224 206
209 198 202 188 185 192 199 202 196 199 200 203 196 201 200 208 203 202 207 210 204 209 212 199 203 199 167 170 182 207 239 227 206
204 199 196 197 197 203 210 208 195 195 198 198 192 200 196 210 214 207 209 206 204 209 206 212 237 205 185 203 196 203 215 236 221
209 199 205 198 183 196 205 195 198 202 195 195 191 193 191 203 205 204 214 222 222 225 219 221 206 210 190 224 216 211 220 233 224
199 200 204 203 202 208 211 207 190 196 192 183 181 193 199 199 207 202 209 221 237 244 234 246 235 221 208 208 217 227 230 235 222
187 196 190 202 209 199 190 189 216 194 179 189 189 193 199 208 205 211 209 223 235 257 250 233 242 214 217 222 220 221 224 220 213
184 183 191 191 189 196 193 210 190 183 199 207 202 205 205 217 219 225 211 211 221 224 238 249 242 230 223 221 223 227 232 230 220
171 165 166 177 178 181 192 181 199 217 192 205 206 227 204 220 228 232 236 229 227 223 215 236 237 226 223 225 233 233 225 235 220
15 127 150 156 158 165 193 201 220 202 193 201 201 205 204 216 238 238 242 247 246 244 245 216 213 217 217 218 233 218 217 219 220
151 220 133 147 172 179 194 184 196 195 199 195 199 215 220 233 242 241 247 256 257 249 234 248 222 218 209 219 235 242 234 212 211
100 128 128 102 163 174 179 181 189 194 201 199 199 198 217 230 235 231 216 162 108 199 223 205 188 203 210 213 211 208 193 191 200
109 54 70 161 138 176 187 177 188 189 185 189 201 207 199 189 170 171 164 159 205 232 127 143 146 142 149 161 109 116 168 179 191
127 45 132 155 161 171 170 187 200 196 213 195 188 193 184 176 183 198 203 192 231 193 212 218 209 208 214 224 230 191 179 184 196
66 75 122 157 172 160 162 165 174 180 186 191 188 189 194 201 197 211 211 228 207 222 174 170 188 205 206 209 208 204 186 179 174
13 82 141 152 162 154 151 156 165 168 165 176 185 194 195 196 193 186 183 183 193 202 175 164 168 181 173 178 188 194 193 206 199
163 156 152 146 134 134 133 139 146 163 158 161 170 172 176 180 181 173 169 169 163 159 146 143 148 161 178 166 160 164 175 194 207
135 129 131 134 139 135 131 130 130 133 140 145 142 139 140 151 156 152 155 154 157 160 163 159 163 173 232 273 207 175 229 235 238
157 148 148 146 149 142 136 138 140 139 138 141 137 139 138 137 151 175 184 171 173 183 190 188 194 206 221 256 274 286 235 188 164
167 164 170 164 153 142 138 146 154 154 149 144 140 142 152 142 150 128 177 216 221 220 226 218 221 227 249 260 225 209 168 148 140